When you browse on this site, cookies collect data to enhance your experience and personalize the content and advertising you see.
Visit our Privacy Policy to learn more. By continuing to use the site, you agree to this use of cookies and data.
  • In Netherlands
  • List of Countries
  • For 7 days
  • Water Temperature
  • Weather Map
  • Weather Widgets
  • user-avatar
    Login

    Hourly Weather La Paz

    Today, 24 February, Monday

    Time Temperature Precipitation Wind Pressure Humidity
    00:00 +8°C° 0 mm 1 mps 474 mmHg 90%
    01:00 +8°C° 0 mm 1 mps 473 mmHg 92%
    02:00 +8°C° 0 mm 1 mps 473 mmHg 91%
    03:00 +8°C° 0 mm 1 mps 473 mmHg 90%
    04:00 +8°C° 0 mm 1 mps 473 mmHg 89%
    05:00 +8°C° 0 mm 0 mps 473 mmHg 88%
    06:00 +8°C° 0 mm 0 mps 474 mmHg 87%
    07:00 +8°C° 0 mm 0 mps 474 mmHg 85%
    08:00 +11°C° 0.2 mm 1 mps 475 mmHg 80%
    09:00 +12°C° 0.2 mm 1 mps 476 mmHg 75%
    10:00 +13°C° 0.2 mm 1 mps 476 mmHg 69%
    11:00 +13°C° 1.1 mm 1 mps 476 mmHg 70%
    12:00 +14°C° 1.1 mm 2 mps 475 mmHg 71%
    13:00 +14°C° 1.1 mm 2 mps 475 mmHg 71%
    14:00 +13°C° 1.2 mm 2 mps 474 mmHg 72%
    15:00 +13°C° 1.2 mm 2 mps 474 mmHg 72%
    16:00 +13°C° 1.2 mm 2 mps 473 mmHg 73%
    17:00 +10°C° 0.9 mm 3 mps 473 mmHg 78%
    18:00 +9°C° 0.9 mm 3 mps 473 mmHg 84%
    19:00 +7°C° 0.9 mm 4 mps 472 mmHg 89%
    20:00 +6°C° 0.2 mm 4 mps 473 mmHg 88%
    21:00 +7°C° 0.2 mm 3 mps 473 mmHg 88%
    22:00 +7°C° 0.2 mm 2 mps 473 mmHg 87%
    23:00 +7°C° 0 mm 2 mps 473 mmHg 88%

    Tomorrow, 25 February, Tuesday

    Time Temperature Precipitation Wind Pressure Humidity
    00:00 +7°C° 0 mm 2 mps 473 mmHg 88%
    01:00 +6°C° 0 mm 2 mps 472 mmHg 88%
    02:00 +7°C° 0 mm 1 mps 472 mmHg 87%
    03:00 +7°C° 0 mm 1 mps 472 mmHg 87%
    04:00 +7°C° 0 mm 1 mps 471 mmHg 86%
    05:00 +8°C° 0 mm 1 mps 472 mmHg 83%
    06:00 +9°C° 0 mm 1 mps 473 mmHg 80%
    07:00 +10°C° 0 mm 1 mps 474 mmHg 77%
    08:00 +11°C° 0.1 mm 1 mps 475 mmHg 71%
    09:00 +13°C° 0.1 mm 1 mps 476 mmHg 65%
    10:00 +14°C° 0.1 mm 2 mps 477 mmHg 58%
    11:00 +15°C° 0.7 mm 2 mps 476 mmHg 60%
    12:00 +15°C° 0.7 mm 2 mps 476 mmHg 61%
    13:00 +15°C° 0.7 mm 2 mps 476 mmHg 62%
    14:00 +15°C° 1.1 mm 2 mps 475 mmHg 63%
    15:00 +15°C° 1.1 mm 2 mps 474 mmHg 64%
    16:00 +15°C° 1.1 mm 1 mps 474 mmHg 65%
    17:00 +13°C° 0.4 mm 2 mps 474 mmHg 71%
    18:00 +12°C° 0.4 mm 2 mps 473 mmHg 78%
    19:00 +10°C° 0.4 mm 2 mps 473 mmHg 84%
    20:00 +9°C° 0.6 mm 2 mps 474 mmHg 85%
    21:00 +9°C° 0.6 mm 2 mps 474 mmHg 85%
    22:00 +10°C° 0.6 mm 1 mps 475 mmHg 85%
    23:00 +9°C° 0.5 mm 1 mps 474 mmHg 85%

    Day after tomorrow, 26 February, Wednesday

    Time Temperature Precipitation Wind Pressure Humidity
    00:00 +9°C° 0.5 mm 1 mps 474 mmHg 85%
    01:00 +8°C° 0.5 mm 0 mps 473 mmHg 84%
    02:00 +8°C° 1.9 mm 1 mps 473 mmHg 86%
    03:00 +7°C° 1.9 mm 2 mps 473 mmHg 87%
    04:00 +6°C° 1.9 mm 2 mps 472 mmHg 88%
    05:00 +7°C° 0.9 mm 2 mps 473 mmHg 86%
    06:00 +7°C° 0.9 mm 2 mps 473 mmHg 85%
    07:00 +9°C° 0.9 mm 1 mps 474 mmHg 83%
    08:00 +10°C° 0 mm 1 mps 475 mmHg 77%
    09:00 +12°C° 0 mm 2 mps 476 mmHg 71%
    10:00 +13°C° 0 mm 2 mps 477 mmHg 65%
    11:00 +14°C° 0.6 mm 2 mps 476 mmHg 66%
    12:00 +13°C° 0.6 mm 3 mps 476 mmHg 67%
    13:00 +13°C° 0.6 mm 3 mps 476 mmHg 68%
    14:00 +13°C° 0.7 mm 4 mps 475 mmHg 70%
    15:00 +12°C° 0.7 mm 4 mps 474 mmHg 72%
    16:00 +12°C° 0.7 mm 4 mps 474 mmHg 73%
    17:00 +11°C° 0.3 mm 4 mps 474 mmHg 77%
    18:00 +10°C° 0.3 mm 3 mps 474 mmHg 81%
    19:00 +9°C° 0.3 mm 3 mps 474 mmHg 85%
    20:00 +9°C° 0.4 mm 3 mps 474 mmHg 87%
    21:00 +8°C° 0.4 mm 2 mps 475 mmHg 89%
    22:00 +8°C° 0.4 mm 2 mps 475 mmHg 90%
    23:00 +9°C° 1.1 mm 1 mps 475 mmHg 91%

    27 February, Thursday

    Time Temperature Precipitation Wind Pressure Humidity
    00:00 +9°C° 1.1 mm 1 mps 474 mmHg 91%
    01:00 +7°C° 1.1 mm 0 mps 474 mmHg 91%
    02:00 +8°C° 1.4 mm 1 mps 473 mmHg 90%
    03:00 +8°C° 1.4 mm 1 mps 473 mmHg 90%
    04:00 +7°C° 1.4 mm 2 mps 473 mmHg 89%
    05:00 +8°C° 0.5 mm 1 mps 474 mmHg 88%
    06:00 +8°C° 0.5 mm 1 mps 474 mmHg 87%
    07:00 +8°C° 0.5 mm 1 mps 474 mmHg 86%
    08:00 +10°C° 0 mm 1 mps 475 mmHg 81%
    09:00 +11°C° 0 mm 1 mps 476 mmHg 76%
    10:00 +12°C° 0 mm 2 mps 477 mmHg 71%
    11:00 +13°C° 0.5 mm 2 mps 476 mmHg 73%
    12:00 +12°C° 0.5 mm 3 mps 476 mmHg 74%
    13:00 +12°C° 0.5 mm 3 mps 475 mmHg 75%
    14:00 +12°C° 0.3 mm 3 mps 475 mmHg 75%
    15:00 +11°C° 0.3 mm 3 mps 474 mmHg 74%
    16:00 +11°C° 0.3 mm 3 mps 474 mmHg 74%
    17:00 +10°C° 0.1 mm 3 mps 473 mmHg 77%
    18:00 +9°C° 0.1 mm 3 mps 473 mmHg 80%
    19:00 +8°C° 0.1 mm 3 mps 473 mmHg 83%
    20:00 +8°C° 0.1 mm 2 mps 473 mmHg 84%
    21:00 +7°C° 0.1 mm 2 mps 473 mmHg 85%
    22:00 +8°C° 0.1 mm 1 mps 474 mmHg 86%
    23:00 +7°C° 0 mm 1 mps 473 mmHg 87%

    28 February, Friday

    Time Temperature Precipitation Wind Pressure Humidity
    00:00 +7°C° 0 mm 1 mps 473 mmHg 88%
    01:00 +7°C° 0 mm 1 mps 473 mmHg 89%
    02:00 +7°C° 0 mm 1 mps 472 mmHg 90%
    03:00 +7°C° 0 mm 1 mps 472 mmHg 90%
    04:00 +5°C° 0 mm 0 mps 472 mmHg 90%
    05:00 +6°C° 0 mm 0 mps 473 mmHg 87%
    06:00 +7°C° 0 mm 0 mps 473 mmHg 84%
    07:00 +8°C° 0 mm 0 mps 474 mmHg 81%
    08:00 +10°C° 0 mm 1 mps 475 mmHg 76%
    09:00 +12°C° 0 mm 1 mps 476 mmHg 71%
    10:00 +13°C° 0 mm 1 mps 477 mmHg 66%
    11:00 +14°C° 0.2 mm 2 mps 476 mmHg 67%
    12:00 +14°C° 0.2 mm 2 mps 476 mmHg 68%
    13:00 +14°C° 0.2 mm 2 mps 475 mmHg 70%
    14:00 +14°C° 0.2 mm 2 mps 475 mmHg 70%
    15:00 +14°C° 0.2 mm 2 mps 475 mmHg 70%
    16:00 +14°C° 0.2 mm 2 mps 474 mmHg 69%
    17:00 +13°C° 0.6 mm 2 mps 474 mmHg 76%
    18:00 +10°C° 0.6 mm 3 mps 474 mmHg 82%
    19:00 +9°C° 0.6 mm 3 mps 473 mmHg 88%
    20:00 +9°C° 0.1 mm 3 mps 473 mmHg 88%
    21:00 +8°C° 0.1 mm 3 mps 474 mmHg 89%
    22:00 +8°C° 0.1 mm 3 mps 474 mmHg 89%
    23:00 +8°C° 0 mm 2 mps 474 mmHg 89%

    29 February, Saturday

    Time Temperature Precipitation Wind Pressure Humidity
    00:00 +7°C° 0 mm 2 mps 473 mmHg 89%
    01:00 +8°C° 0 mm 1 mps 473 mmHg 89%
    02:00 +8°C° 0 mm 1 mps 473 mmHg 89%
    03:00 +7°C° 0 mm 1 mps 473 mmHg 89%
    04:00 +7°C° 0 mm 1 mps 473 mmHg 88%
    05:00 +8°C° 0 mm 1 mps 473 mmHg 85%
    06:00 +7°C° 0 mm 0 mps 474 mmHg 81%
    07:00 +8°C° 0 mm 0 mps 475 mmHg 77%
    08:00 +11°C° 0 mm 1 mps 476 mmHg 71%
    09:00 +12°C° 0 mm 1 mps 477 mmHg 66%
    10:00 +14°C° 0 mm 2 mps 478 mmHg 61%
    11:00 +14°C° 0.2 mm 2 mps 478 mmHg 60%
    12:00 +14°C° 0.2 mm 3 mps 477 mmHg 59%
    13:00 +16°C° 0.2 mm 3 mps 477 mmHg 58%
    14:00 +14°C° 0.4 mm 4 mps 477 mmHg 60%
    15:00 +14°C° 0.4 mm 4 mps 476 mmHg 62%
    16:00 +14°C° 0.4 mm 4 mps 475 mmHg 64%
    17:00 +12°C° 0.2 mm 4 mps 475 mmHg 70%
    18:00 +10°C° 0.2 mm 4 mps 474 mmHg 77%
    19:00 +8°C° 0.2 mm 4 mps 474 mmHg 84%
    20:00 +8°C° 0.2 mm 3 mps 474 mmHg 85%
    21:00 +8°C° 0.2 mm 3 mps 475 mmHg 87%
    22:00 +8°C° 0.2 mm 3 mps 475 mmHg 88%
    23:00 +8°C° 0.3 mm 2 mps 474 mmHg 89%
    Show more